Jordan, MT

1:28 AM MDT on March 28, 2017 (GMT -0600)
Jordan

Weather History for KJDN - October, 2014

Change the Weather History Date:

Saturday, October 18, 2014

  Actual Average Record
Temperature  
Mean Temperature 55 °F 43 °F  
Max Temperature 73 °F 58 °F 84 °F (1963)
Min Temperature 36 °F 29 °F 12 °F (1991)
Degree Days  
Heating Degree Days 10 22  
Month to date heating degree days 290 328  
Since 1 July heating degree days 581 654  
Cooling Degree Days 0 0  
Month to date cooling degree days 0 0  
Year to date cooling degree days 460 420  
Growing Degree Days 6 (Base 50)    
Moisture  
Dew Point 36 °F    
Average Humidity 55    
Maximum Humidity 85    
Minimum Humidity 25    
Precipitation  
Precipitation 0.00 in 0.03 in 0.70 in (1971)
Month to date precipitation 0.01 0.55  
Year to date precipitation 12.54 11.68  
Snow  
Snow 0.00 in - - ()
Month to date snowfall 0.0  
Since 1 July snowfall 0.0  
Since 1 September snowfall 0.0  
Snow Depth 0.00 in    
Sea Level Pressure  
Sea Level Pressure 29.91 in    
Wind  
Wind Speed 7 mph (West)    
Max Wind Speed 23 mph    
Max Gust Speed 28 mph    
T = Trace of Precipitation, MM = Missing Value Source: NWS Daily Summary

Daily Weather History Graph

Daily Weather History Graph

Search for Another Location

Airport or City:

Trip Planner

Search our weather history database for the weather conditions in past years. The results will help you decide how hot, cold, wet, or windy it might be!

Date:

Astronomy

Oct. 18, 2014 Rise Set
Actual Time 7:30 AM MDT 6:14 PM MDT
Civil Twilight 6:59 AM MDT 6:45 PM MDT
Nautical Twilight 6:23 AM MDT 7:20 PM MDT
Astronomical Twilight 5:48 AM MDT 7:56 PM MDT
Moon 2:12 AM MDT (10/18) 3:53 PM MDT (10/18)
Length of Visible Light 11h 45m
Length of Day
10h 43m
Waning Crescent, 24% of the Moon is Illuminated
Oct 18
Waning Crescent
Oct 23
New
Oct 30
First Quarter
Nov 6
Full
Nov 14
Last Quarter

Hourly Weather History & Observations

Time (MDT) Temp. Windchill Dew Point Humidity Pressure Visibility Wind Dir Wind Speed Gust Speed Precip Events Conditions
12:48 AM 44.1 °F 41.5 °F 37.0 °F 76% 30.01 in - ENE 4.6 mph - N/A   Unknown
1:48 AM 44.1 °F 41.5 °F 37.0 °F 76% 29.99 in - Variable 4.6 mph - N/A   Unknown
2:48 AM 44.1 °F 40.1 °F 37.0 °F 76% 29.98 in - ESE 6.9 mph - N/A   Unknown
3:48 AM 43.0 °F 40.3 °F 37.0 °F 80% 29.96 in - SSE 4.6 mph - N/A   Unknown
4:48 AM 39.0 °F - 34.0 °F 82% 29.96 in - Calm Calm - N/A   Unknown
5:48 AM 39.0 °F 34.8 °F 35.1 °F 86% 29.96 in - SE 5.8 mph - N/A   Unknown
6:48 AM 39.0 °F 35.7 °F 35.1 °F 86% 29.94 in - East 4.6 mph - N/A   Unknown
7:48 AM 39.0 °F - 34.0 °F 82% 29.94 in - Calm Calm - N/A   Unknown
8:48 AM 41.0 °F - 36.0 °F 82% 29.94 in - Calm Calm - N/A   Unknown
9:48 AM 50.0 °F - 39.0 °F 66% 29.92 in - West 3.5 mph - N/A   Unknown
10:48 AM 57.2 °F - 37.4 °F 48% 29.57 in - WSW 12.7 mph - N/A   Unknown
11:48 AM 64.9 °F - 37.9 °F 37% 29.89 in - West 8.1 mph - N/A   Unknown
12:48 PM 66.0 °F - 37.0 °F 34% 29.88 in - West 10.4 mph - N/A   Unknown
1:48 PM 73.0 °F - 37.0 °F 27% 29.86 in - NW 15.0 mph - N/A   Unknown
2:48 PM 73.0 °F - 35.1 °F 25% 29.86 in - West 20.7 mph 25.3 mph N/A   Unknown
3:48 PM 72.0 °F - 33.1 °F 24% 29.86 in - WNW 17.3 mph - N/A   Unknown
4:48 PM 71.1 °F - 36.0 °F 28% 29.86 in - WNW 10.4 mph - N/A   Unknown
5:48 PM 64.0 °F - 39.0 °F 40% 29.88 in - WNW 8.1 mph - N/A   Unknown
6:48 PM 53.1 °F - 37.0 °F 55% 29.92 in - West 3.5 mph - N/A   Unknown
7:48 PM 48.0 °F - 37.0 °F 66% 29.94 in - WNW 4.6 mph - N/A   Unknown
8:48 PM 43.0 °F - 35.1 °F 74% 29.96 in - Calm Calm - N/A   Unknown
9:48 PM 46.0 °F 41.9 °F 37.0 °F 71% 29.95 in - WNW 8.1 mph - N/A   Unknown
10:48 PM 42.1 °F 40.2 °F 34.0 °F 73% 29.95 in - WNW 3.5 mph - N/A   Unknown
11:48 PM 39.9 °F 36.7 °F 34.0 °F 79% 29.96 in - West 4.6 mph - N/A   Unknown